Ironwood, MI

9:45 AM CST on December 13, 2017 (GMT -0600)
Gogebic-Iron County

Weather History for KIWD - August, 2014

Change the Weather History Date:

Wednesday, August 6, 2014

  Actual Average Record
Temperature  
Mean Temperature 60 °F -  
Max Temperature 71 °F 73 °F 89 °F (2001)
Min Temperature 48 °F 53 °F 41 °F (2002)
Degree Days  
Heating Degree Days 6    
Growing Degree Days 10 (Base 50)    
Moisture  
Dew Point 55 °F    
Average Humidity 88    
Maximum Humidity 100    
Minimum Humidity 60    
Precipitation  
Precipitation 0.00 in - - ()
Sea Level Pressure  
Sea Level Pressure 30.09 in    
Wind  
Wind Speed 2 mph (NNE)    
Max Wind Speed 10 mph    
Max Gust Speed -    
Visibility 7 miles    
Events      
Averages and records for this station are not official NWS values.
T = Trace of Precipitation, MM = Missing Value Source: NWS Daily Summary

Daily Weather History Graph

Daily Weather History Graph

Search for Another Location

Airport or City:

Trip Planner

Search our weather history database for the weather conditions in past years. The results will help you decide how hot, cold, wet, or windy it might be!

Date:

Astronomy

Aug. 06, 2014 Rise Set
Actual Time 5:47 AM CDT 8:24 PM CDT
Civil Twilight 5:13 AM CDT 8:58 PM CDT
Nautical Twilight 4:29 AM CDT 9:41 PM CDT
Astronomical Twilight 3:39 AM CDT 10:31 PM CDT
Moon 4:44 PM CDT (8/6) 1:20 AM CDT (8/6)
Length of Visible Light 15h 45m
Length of Day
14h 36m
Waxing Gibbous, 78% of the Moon is Illuminated
Aug 6
Waxing Gibbous
Aug 10
Full
Aug 17
Last Quarter
Aug 25
New
Sep 2
First Quarter

Hourly Weather History & Observations

Time (CDT) Temp. Dew Point Humidity Pressure Visibility Wind Dir Wind Speed Gust Speed Precip Events Conditions
12:15 AM 51.8 °F 50.0 °F 94% 30.09 in 1.5 mi Calm Calm - N/A   Clear
2:15 AM 57.2 °F 57.2 °F 100% 30.07 in 9.0 mi South 5.8 mph - N/A   Mostly Cloudy
2:35 AM 57.2 °F 57.2 °F 100% 30.06 in 10.0 mi South 4.6 mph - N/A   Partly Cloudy
3:15 AM 55.4 °F 55.4 °F 100% 30.05 in 10.0 mi Calm Calm - N/A   Clear
3:35 AM 55.4 °F 55.4 °F 100% 30.05 in 5.0 mi Calm Calm - N/A   Clear
4:35 AM 51.8 °F 51.8 °F 100% 30.06 in 0.5 mi Calm Calm - N/A   Unknown
4:55 AM 50.0 °F 48.2 °F 94% 30.06 in 0.2 mi Calm Calm - N/A   Overcast
5:15 AM 51.8 °F 51.8 °F 100% 30.06 in 2.5 mi East 3.5 mph - N/A   Partly Cloudy
5:35 AM 51.8 °F 51.8 °F 100% 30.07 in 5.0 mi Calm Calm - N/A   Clear
6:15 AM 50.0 °F 48.2 °F 94% 30.07 in 0.2 mi Calm Calm - N/A   Unknown
6:35 AM 48.2 °F 48.2 °F 100% 30.08 in 0.2 mi Calm Calm - N/A   Unknown
6:55 AM 51.8 °F 50.0 °F 94% 30.08 in 9.0 mi Calm Calm - N/A   Clear
7:35 AM 53.6 °F 53.6 °F 100% 30.09 in 10.0 mi Calm Calm - N/A   Clear
2:35 PM 69.8 °F 60.8 °F 73% 30.10 in 10.0 mi North 9.2 mph - N/A   Clear
4:15 PM 71.6 °F 57.2 °F 60% 30.09 in 10.0 mi NNE 10.4 mph - N/A   Clear
4:35 PM 69.8 °F 55.4 °F 60% 30.09 in 10.0 mi NNE 8.1 mph - N/A   Clear
5:15 PM 69.8 °F 57.2 °F 64% 30.09 in 10.0 mi NNE 6.9 mph - N/A   Clear
5:35 PM 69.8 °F 57.2 °F 64% 30.09 in 10.0 mi NNE 6.9 mph - N/A   Clear
5:55 PM 68.0 °F 57.2 °F 68% 30.09 in 10.0 mi NE 8.1 mph - N/A   Clear
6:15 PM 68.0 °F 57.2 °F 68% 30.09 in 10.0 mi ENE 4.6 mph - N/A   Clear
6:35 PM 68.0 °F 57.2 °F 68% 30.09 in 10.0 mi North 4.6 mph - N/A   Clear
6:55 PM 66.2 °F 57.2 °F 73% 30.09 in 10.0 mi North 3.5 mph - N/A   Clear
7:15 PM 66.2 °F 59.0 °F 78% 30.09 in 10.0 mi North 3.5 mph - N/A   Clear
7:35 PM 66.2 °F 59.0 °F 78% 30.10 in 10.0 mi NNW 3.5 mph - N/A   Clear
7:55 PM 64.4 °F 59.0 °F 83% 30.10 in 10.0 mi Calm Calm - N/A   Clear
8:15 PM 64.4 °F 59.0 °F 83% 30.10 in 10.0 mi Calm Calm - N/A   Clear
8:35 PM 60.8 °F 59.0 °F 94% 30.10 in 10.0 mi Calm Calm - N/A   Clear
8:55 PM 60.8 °F 59.0 °F 94% 30.10 in 10.0 mi Calm Calm - N/A   Clear
9:15 PM 57.2 °F 57.2 °F 100% 30.11 in 5.0 mi Calm Calm - N/A   Clear
9:35 PM 57.2 °F 57.2 °F 100% 30.11 in 2.0 mi Calm Calm - N/A   Clear
9:55 PM 55.4 °F 55.4 °F 100% 30.11 in 0.8 mi Calm Calm - N/A   Unknown
10:15 PM 55.4 °F 53.6 °F 94% 30.11 in 4.0 mi Calm Calm - N/A   Clear
10:35 PM 53.6 °F 53.6 °F 100% 30.12 in 4.0 mi Calm Calm - N/A   Clear
10:55 PM 53.6 °F 53.6 °F 100% 30.12 in 0.8 mi Calm Calm - N/A   Unknown
11:15 PM 55.4 °F 53.6 °F 94% 30.12 in 10.0 mi Calm Calm - N/A   Clear
11:35 PM 51.8 °F 51.8 °F 100% 30.12 in 8.0 mi East 3.5 mph - N/A   Clear
11:55 PM 53.6 °F 53.6 °F 100% 30.12 in 6.0 mi Calm Calm - N/A   Clear